TimeMDT,TemperatureF,Dew PointF,Humidity,Sea Level PressureIn,VisibilityMPH,Wind Direction,Wind SpeedMPH,Gust SpeedMPH,PrecipitationIn,Events,Conditions,WindDirDegrees,DateUTC
12:15 AM,71.4,49.1,45,30.23,10.0,ESE,6.9,-,N/A,,Clear,120,2013-07-17 06:15:00
12:35 AM,70.7,49.6,47,30.23,10.0,ESE,8.1,-,N/A,,Clear,120,2013-07-17 06:35:00
12:55 AM,70.5,50.5,49,30.23,10.0,ESE,6.9,-,N/A,,Clear,120,2013-07-17 06:55:00
1:15 AM,70.2,52.0,52,30.23,10.0,ESE,8.1,-,N/A,,Clear,110,2013-07-17 07:15:00
1:35 AM,69.3,52.0,54,30.23,10.0,SE,6.9,-,N/A,,Clear,140,2013-07-17 07:35:00
1:55 AM,68.4,52.2,56,30.23,10.0,ESE,6.9,-,N/A,,Clear,120,2013-07-17 07:55:00
2:15 AM,68.0,52.0,56,30.23,10.0,SE,6.9,-,N/A,,Clear,130,2013-07-17 08:15:00
2:35 AM,68.4,52.5,57,30.23,10.0,SE,6.9,-,N/A,,Clear,140,2013-07-17 08:35:00
2:55 AM,68.0,52.7,58,30.23,10.0,SE,6.9,-,N/A,,Clear,140,2013-07-17 08:55:00
3:15 AM,67.5,52.9,59,30.23,10.0,SE,6.9,-,N/A,,Clear,130,2013-07-17 09:15:00
3:35 AM,67.3,53.4,61,30.23,10.0,SE,6.9,-,N/A,,Scattered Clouds,130,2013-07-17 09:35:00
3:55 AM,67.1,53.6,62,30.23,10.0,SE,6.9,-,N/A,,Mostly Cloudy,140,2013-07-17 09:55:00
4:15 AM,66.7,53.8,63,30.23,10.0,SSE,5.8,-,N/A,,Overcast,150,2013-07-17 10:15:00
4:35 AM,66.9,54.0,63,30.24,10.0,SSE,3.5,-,N/A,,Mostly Cloudy,150,2013-07-17 10:35:00
4:55 AM,67.3,54.0,62,30.24,10.0,Calm,Calm,-,N/A,,Overcast,0,2013-07-17 10:55:00
5:15 AM,67.8,54.1,62,30.25,10.0,Calm,Calm,-,N/A,,Overcast,0,2013-07-17 11:15:00
5:35 AM,67.5,54.5,63,30.25,10.0,Calm,Calm,-,N/A,,Overcast,0,2013-07-17 11:35:00
5:55 AM,66.6,54.7,66,30.25,10.0,Calm,Calm,-,N/A,,Mostly Cloudy,0,2013-07-17 11:55:00
6:15 AM,65.3,54.5,68,30.26,10.0,NNW,4.6,-,N/A,,Clear,340,2013-07-17 12:15:00
6:35 AM,65.8,54.5,67,30.27,10.0,North,4.6,-,N/A,,Clear,360,2013-07-17 12:35:00
6:55 AM,66.4,54.5,66,30.27,10.0,NNW,3.5,-,N/A,,Clear,340,2013-07-17 12:55:00
7:15 AM,67.3,53.1,60,30.28,10.0,North,8.1,-,N/A,,Clear,10,2013-07-17 13:15:00
7:35 AM,69.1,52.7,56,30.28,10.0,NNE,8.1,-,N/A,,Clear,20,2013-07-17 13:35:00
7:55 AM,71.1,51.8,50,30.28,10.0,NNE,11.5,-,N/A,,Clear,30,2013-07-17 13:55:00
8:15 AM,71.4,52.3,51,30.29,10.0,North,13.8,-,N/A,,Clear,10,2013-07-17 14:15:00
8:35 AM,72.0,52.9,51,30.29,10.0,North,13.8,18.4,N/A,,Clear,360,2013-07-17 14:35:00
8:55 AM,72.3,53.8,52,30.29,10.0,North,13.8,-,N/A,,Clear,10,2013-07-17 14:55:00
9:15 AM,73.2,53.4,50,30.29,10.0,North,10.4,-,N/A,,Clear,360,2013-07-17 15:15:00
9:35 AM,74.3,52.7,47,30.29,10.0,ENE,9.2,-,N/A,,Clear,60,2013-07-17 15:35:00
9:55 AM,74.8,53.4,47,30.29,10.0,NE,6.9,-,N/A,,Clear,50,2013-07-17 15:55:00
10:15 AM,76.3,54.0,46,30.29,10.0,ENE,8.1,-,N/A,,Clear,60,2013-07-17 16:15:00
10:35 AM,76.6,52.9,43,30.29,10.0,NNE,3.5,-,N/A,,Clear,30,2013-07-17 16:35:00
10:55 AM,77.7,52.9,42,30.28,10.0,Calm,Calm,-,N/A,,Scattered Clouds,0,2013-07-17 16:55:00
11:15 AM,78.8,52.0,39,30.28,10.0,ENE,8.1,-,N/A,,Scattered Clouds,70,2013-07-17 17:15:00
11:35 AM,78.1,51.6,40,30.27,10.0,SSE,4.6,-,N/A,,Overcast,150,2013-07-17 17:35:00
11:55 AM,78.6,51.1,38,30.27,10.0,NE,5.8,-,N/A,,Overcast,50,2013-07-17 17:55:00
12:15 PM,78.8,49.5,36,30.27,10.0,ESE,3.5,-,N/A,,Overcast,120,2013-07-17 18:15:00
12:35 PM,82.6,50.0,32,30.26,10.0,East,10.4,-,N/A,,Mostly Cloudy,90,2013-07-17 18:35:00
12:55 PM,82.8,49.3,31,30.25,10.0,East,10.4,16.1,N/A,,Scattered Clouds,80,2013-07-17 18:55:00
1:15 PM,82.2,48.4,31,30.24,10.0,ENE,6.9,16.1,N/A,,Mostly Cloudy,60,2013-07-17 19:15:00
1:35 PM,82.9,48.4,30,30.24,10.0,East,6.9,17.3,N/A,,Mostly Cloudy,90,2013-07-17 19:35:00
1:55 PM,79.7,54.7,42,30.24,10.0,SE,20.7,28.8,N/A,,Mostly Cloudy,130,2013-07-17 19:55:00
2:15 PM,81.9,54.1,38,30.24,7.0,East,24.2,34.5,N/A,Thunderstorm,Mostly Cloudy,100,2013-07-17 20:15:00
2:35 PM,78.4,54.5,43,30.24,10.0,ESE,23.0,29.9,N/A,,Mostly Cloudy,110,2013-07-17 20:35:00
2:55 PM,77.5,54.0,44,30.23,10.0,ESE,21.9,31.1,N/A,,Overcast,110,2013-07-17 20:55:00
3:15 PM,79.5,53.6,41,30.23,10.0,ESE,25.3,33.4,N/A,Thunderstorm,Scattered Clouds,120,2013-07-17 21:15:00
3:35 PM,81.0,52.2,37,30.23,10.0,ESE,16.1,27.6,N/A,Thunderstorm,Scattered Clouds,110,2013-07-17 21:35:00
3:55 PM,77.9,51.4,40,30.23,10.0,ESE,18.4,25.3,N/A,,Scattered Clouds,110,2013-07-17 21:55:00
4:15 PM,77.5,50.9,39,30.23,10.0,SE,15.0,21.9,N/A,,Clear,130,2013-07-17 22:15:00
4:35 PM,77.7,50.9,39,30.22,10.0,SE,16.1,26.5,N/A,,Clear,130,2013-07-17 22:35:00
4:55 PM,77.0,52.0,42,30.22,10.0,SE,16.1,21.9,N/A,,Clear,130,2013-07-17 22:55:00
5:15 PM,76.5,52.2,43,30.22,10.0,ESE,17.3,25.3,N/A,,Clear,120,2013-07-17 23:15:00
5:35 PM,75.9,52.3,44,30.21,10.0,SE,18.4,24.2,N/A,,Clear,130,2013-07-17 23:35:00
5:55 PM,75.2,52.9,46,30.21,10.0,ESE,18.4,23.0,N/A,,Clear,120,2013-07-17 23:55:00
6:15 PM,74.7,53.6,48,30.21,10.0,SE,16.1,20.7,N/A,,Clear,130,2013-07-18 00:15:00
6:35 PM,74.3,53.1,47,30.22,10.0,ESE,18.4,21.9,N/A,,Clear,120,2013-07-18 00:35:00
6:55 PM,73.0,54.0,51,30.22,10.0,ESE,15.0,23.0,N/A,,Clear,120,2013-07-18 00:55:00
7:15 PM,72.3,53.6,52,30.21,10.0,ESE,16.1,21.9,N/A,,Clear,110,2013-07-18 01:15:00
7:35 PM,71.8,52.7,51,30.23,10.0,ESE,17.3,21.9,N/A,,Clear,110,2013-07-18 01:35:00
7:55 PM,71.1,52.7,52,30.24,10.0,East,17.3,24.2,N/A,,Clear,100,2013-07-18 01:55:00
8:15 PM,70.5,52.7,53,30.25,10.0,East,15.0,21.9,N/A,,Clear,100,2013-07-18 02:15:00
8:35 PM,69.8,53.8,57,30.25,10.0,ESE,9.2,-,N/A,,Clear,110,2013-07-18 02:35:00
8:55 PM,69.3,54.9,60,30.25,10.0,ESE,10.4,19.6,N/A,,Clear,120,2013-07-18 02:55:00
9:15 PM,68.9,55.2,62,30.27,10.0,ESE,15.0,-,N/A,,Scattered Clouds,110,2013-07-18 03:15:00
9:35 PM,68.9,55.9,63,30.27,10.0,ESE,10.4,-,N/A,,Mostly Cloudy,120,2013-07-18 03:35:00
9:55 PM,68.5,56.5,65,30.28,10.0,ESE,10.4,-,N/A,,Mostly Cloudy,120,2013-07-18 03:55:00
10:15 PM,68.7,57.0,66,30.28,10.0,ESE,10.4,-,N/A,,Mostly Cloudy,110,2013-07-18 04:15:00
10:35 PM,68.7,57.4,67,30.29,10.0,ESE,13.8,-,N/A,,Scattered Clouds,120,2013-07-18 04:35:00
10:55 PM,68.7,57.4,67,30.29,10.0,ESE,11.5,16.1,N/A,,Clear,120,2013-07-18 04:55:00
11:15 PM,68.4,57.4,68,30.29,10.0,ESE,9.2,-,N/A,,Clear,120,2013-07-18 05:15:00
11:35 PM,68.4,57.6,68,30.29,10.0,ESE,6.9,-,N/A,,Scattered Clouds,120,2013-07-18 05:35:00
11:55 PM,68.2,57.7,69,30.28,10.0,ESE,8.1,-,N/A,,Scattered Clouds,120,2013-07-18 05:55:00